Probability
0 0 0 0 0 0 0 0 0 0 0 0 0 0 0 0 0 0 0 0 0 0 0 0 0 1 2 1 0 0 1 9 39 78 96 92 78 62 48 31 12 2 0 0
0 0 0 0 0 0 0 0 0 0 0 0 0 0 0 0 0 0 0 0 0 0 0 0 4 12 17 14 7 2 3 19 52 85 98 96 90 79 68 49 23 6 1 0
0 0 0 0 0 0 0 0 0 0 0 0 0 0 0 0 0 0 0 0 0 0 0 0 8 26 41 42 29 13 13 38 73 95 100 100 99 96 88 71 41 16 4 2
0 0 0 0 0 0 0 0 0 0 0 0 0 0 0 0 0 0 0 0 0 0 0 0 7 23 42 59 58 43 41 64 88 99 100 98 95 92 90 81 60 32 14 8
0 0 0 0 0 0 0 0 0 0 0 0 0 0 0 0 0 0 0 0 0 0 0 0 2 8 22 48 71 75 75 84 95 99 98 92 81 74 75 78 68 48 26 15
0 0 0 0 0 0 0 0 0 0 0 0 0 0 0 0 0 0 0 0 0 0 0 0 0 1 7 28 59 78 83 85 90 93 90 81 67 55 57 62 59 46 29 17
0 0 0 0 0 0 0 0 0 0 0 0 0 0 0 0 0 0 0 0 0 0 0 0 0 0 2 13 33 50 56 59 68 75 73 64 54 46 46 47 43 32 19 12
0 0 0 0 0 0 0 0 0 0 0 0 0 0 0 0 0 0 0 0 0 0 0 0 0 0 0 4 11 19 22 24 33 45 48 42 37 35 34 34 29 18 8 5
0 0 0 0 0 0 0 0 0 0 0 0 0 0 0 0 0 0 0 0 0 0 0 0 0 0 0 0 2 3 3 4 9 16 21 20 18 17 18 18 15 8 2 1
0 0 0 0 0 0 0 0 0 0 0 0 0 0 0 0 0 0 0 0 0 0 0 0 0 0 0 0 0 0 0 0 1 2 4 4 5 5 6 6 5 2 0 0
0 0 0 0 0 0 0 0 0 0 0 0 0 0 0 0 0 0 0 0 0 0 0 0 0 0 0 0 0 0 0 0 0 0 0 0 0 1 1 1 1 0 0 0
0 0 0 0 0 0 0 0 0 0 0 0 0 0 0 0 0 0 0 0 0 0 0 0 0 0 0 0 0 0 0 0 0 0 0 0 0 0 0 0 0 0 0 0
0 0 0 0 0 0 0 0 0 0 0 0 0 0 0 0 0 0 0 0 0 0 0 0 0 0 0 0 0 0 0 0 0 0 0 0 0 0 0 0 0 0 0 0
0 0 0 0 0 0 0 0 0 0 0 0 0 0 0 0 0 0 0 0 0 0 0 0 0 0 0 0 0 0 0 0 0 0 0 0 0 0 0 0 0 0 0 0
0 0 0 0 0 0 0 0 0 0 0 0 0 0 0 0 0 0 0 0 0 0 0 0 0 0 0 0 0 0 0 0 0 0 0 0 0 0 0 0 0 0 0 0
0 0 0 0 0 0 0 0 0 0 0 0 0 0 0 0 0 0 0 0 0 0 0 0 0 0 0 0 0 0 0 0 0 0 0 0 0 0 0 0 0 0 0 0
0 0 0 0 0 0 0 0 0 0 0 0 0 0 0 0 0 0 0 0 0 0 0 0 0 0 0 0 0 0 0 0 0 0 0 0 0 0 0 0 0 0 0 0
0 0 0 0 0 0 0 0 0 0 0 0 0 0 0 0 0 0 0 0 0 0 0 0 0 0 0 0 0 0 0 0 0 0 0 0 0 0 0 0 0 0 0 0
0 0 0 0 0 0 0 0 0 0 0 0 0 0 0 0 0 0 0 0 0 0 0 0 0 0 0 0 0 0 0 0 0 0 0 0 0 0 0 0 0 0 0 0
0 0 0 0 0 0 0 0 0 0 0 0 0 0 0 0 0 0 0 0 0 0 0 0 0 0 0 0 0 0 0 0 0 0 0 0 0 0 0 0 0 0 0 0
0 0 0 0 0 0 0 0 0 0 0 0 0 0 0 0 0 0 0 0 0 0 0 0 0 0 0 0 0 0 0 0 0 0 0 0 0 0 0 0 0 0 0 0
0 0 0 0 0 0 0 0 0 0 0 0 0 0 0 0 0 0 0 0 0 0 0 0 0 0 0 0 0 0 0 0 0 0 0 0 0 0 0 0 0 0 0 0
0 0 0 0 0 0 0 0 0 0 0 0 0 0 0 0 0 0 0 0 0 0 0 0 0 0 0 0 0 0 0 0 0 0 0 0 0 0 0 0 0 0 0 0
0 0 0 0 0 0 0 0 0 0 0 0 0 0 0 0 0 0 0 0 0 0 0 0 0 0 0 0 0 0 0 0 0 0 0 0 0 0 0 0 0 0 0 0
0 0 0 0 0 0 0 0 0 0 0 0 0 0 0 0 0 0 0 0 0 0 0 0 0 0 0 0 0 0 0 0 0 0 0 0 0 0 0 0 0 0 0 0
0 0 0 0 0 0 0 0 0 0 0 0 0 0 0 0 0 0 0 0 0 0 0 0 0 0 0 0 0 0 0 0 0 0 0 0 0 0 0 0 0 0 0 0
Wind_Speed
1 1 5 7 5 6 5 7 7 3 2 4 3 1 3 6 8 9 10 11 11 12 12 11 10 9 9 11 13 14 14 14 12 11 10 9 9 8 7 7 8 9 9 9
4 8 8 4 3 4 6 8 8 3 1 5 5 3 4 5 9 10 11 12 13 15 15 14 12 10 9 10 14 16 16 15 15 11 11 10 9 8 7 6 8 9 10 9
9 9 7 5 8 7 6 7 8 8 4 6 8 8 7 2 4 9 10 12 13 15 16 16 15 12 10 9 11 11 13 13 13 13 9 8 8 5 6 7 7 9 9 9
8 9 8 9 12 12 8 7 9 9 9 8 6 8 6 1 3 9 12 13 15 15 15 15 14 12 11 11 10 8 8 10 11 11 10 12 8 5 5 5 6 8 9 8
8 11 12 13 13 11 10 10 10 11 12 12 10 10 4 2 4 10 14 15 15 15 14 14 13 11 10 9 8 4 3 6 8 8 8 8 6 4 3 1 3 6 6 7
10 9 10 13 11 8 12 12 12 10 10 15 13 12 4 4 8 12 15 15 15 14 14 13 11 10 9 9 7 4 5 6 7 8 9 9 10 10 6 2 2 2 2 4
5 11 11 13 14 10 13 11 6 7 8 7 4 6 6 9 9 12 14 15 15 13 13 13 12 10 9 9 8 6 7 8 6 6 7 8 8 10 9 4 0 2 3 5
7 8 13 13 13 12 11 10 7 7 6 5 5 3 7 8 9 11 12 13 14 14 12 12 12 9 7 6 6 5 8 9 8 6 7 8 7 6 6 5 1 3 5 5
7 7 10 11 12 13 11 8 7 8 9 8 4 3 5 9 13 14 14 15 15 15 12 11 11 9 8 7 6 4 6 8 7 7 8 8 8 8 6 3 1 4 5 5
6 4 8 8 9 13 8 8 6 5 7 6 4 4 9 18 19 18 17 16 15 14 10 9 9 10 11 10 9 7 6 6 5 6 7 7 9 8 4 1 4 6 5 5
5 4 6 7 11 13 10 6 5 3 2 5 4 2 7 13 14 14 14 13 13 12 9 9 9 9 10 10 10 8 5 4 5 6 7 7 6 4 1 2 5 4 3 5
5 3 5 6 5 7 8 7 6 5 4 4 4 2 7 12 11 11 11 11 11 10 10 10 10 11 11 10 9 7 5 5 5 6 6 5 4 2 2 4 3 2 1 3
2 3 2 5 3 9 7 12 7 3 4 5 5 6 10 14 15 15 13 13 12 12 12 10 10 11 11 10 9 8 8 9 8 6 4 3 2 1 3 2 1 2 3 2
2 6 7 6 4 6 8 12 12 7 4 5 7 9 13 18 18 17 15 14 13 12 11 11 11 12 12 11 11 11 10 9 7 5 3 3 2 2 1 2 2 3 4 3
2 5 8 7 3 6 10 11 11 10 7 6 8 9 11 16 15 14 13 12 12 12 12 12 12 12 12 12 12 12 11 10 8 5 4 3 2 2 2 3 3 4 4 4
1 5 6 5 2 1 7 10 9 8 7 7 6 5 9 13 11 12 12 11 11 12 12 12 12 12 12 12 11 12 12 11 10 9 8 7 7 6 6 5 5 5 6 6
2 5 5 4 4 6 4 6 5 5 6 4 4 6 12 12 11 11 11 10 10 11 11 12 11 11 11 10 11 12 11 10 11 12 11 11 10 9 9 8 8 8 9 9
1 3 2 2 6 2 6 3 1 1 1 3 5 8 10 9 5 8 10 10 10 10 10 10 10 10 9 9 9 9 9 10 11 12 11 10 9 9 9 10 10 10 9 9
1 3 2 1 2 5 4 4 3 1 2 1 4 7 10 10 4 11 14 12 10 9 8 8 8 8 8 8 8 9 10 10 10 10 9 9 9 9 9 10 10 9 8 8
3 2 3 3 3 2 6 7 2 4 3 2 3 7 9 10 7 9 14 13 10 9 8 8 7 7 7 7 6 8 8 9 9 8 8 8 9 9 8 8 8 7 6 6
4 4 3 4 3 3 6 6 5 4 5 3 3 5 7 8 7 9 10 10 9 8 8 8 7 6 6 6 6 8 9 8 7 7 8 8 8 8 7 7 7 7 7 6
4 4 4 4 4 3 9 7 5 4 4 1 2 4 6 7 7 9 9 10 10 9 8 8 7 7 6 6 7 8 8 6 5 5 6 6 6 5 5 6 7 7 6 5
5 4 2 4 2 5 7 5 1 0 1 1 3 4 5 6 8 9 9 9 9 9 8 8 8 8 6 5 6 7 6 4 4 4 5 4 4 4 5 5 6 5 5 4
4 4 5 6 6 7 8 7 6 4 3 2 3 4 4 6 7 8 8 8 8 8 8 8 8 8 8 7 5 5 4 3 3 4 4 3 4 4 4 4 4 4 4 5
4 7 6 7 4 7 10 10 9 7 4 2 2 2 4 5 7 8 8 8 8 8 8 8 8 8 9 8 6 5 4 3 3 3 3 3 3 3 3 4 3 3 4 6
8 9 7 4 7 7 8 13 12 9 6 4 2 1 2 4 7 8 8 8 8 8 8 8 8 9 9 8 7 6 4 3 4 2 1 2 2 3 3 2 4 2 1 3
Wind_Direction
137 22 6 347 327 307 296 274 271 299 15 295 286 328 74 35 22 11 2 355 346 338 330 322 303 285 264 250 246 238 226 213 205 193 194 189 192 192 195 203 209 211 213 216
168 40 19 36 17 287 276 276 281 275 214 278 273 255 127 52 29 18 3 357 353 346 342 338 325 305 293 256 239 234 226 215 207 200 195 191 189 190 185 192 206 215 217 215
68 32 21 36 20 333 295 308 306 296 271 235 262 233 176 124 20 21 15 3 359 355 346 342 337 334 325 300 262 241 225 208 199 197 190 176 165 157 166 186 201 213 217 214
68 30 21 22 19 349 312 354 313 288 267 251 239 275 181 77 16 16 11 5 2 358 352 347 344 344 345 334 313 264 211 194 186 182 182 180 175 164 171 176 189 200 206 207
68 37 31 20 2 346 333 320 297 282 269 266 240 258 220 113 11 7 3 359 359 356 353 351 351 347 345 344 342 340 137 150 155 162 169 153 126 96 66 68 192 189 193 198
75 51 33 7 350 352 329 301 273 250 253 252 255 254 231 61 8 355 355 355 354 349 344 345 350 350 349 357 6 30 100 121 138 152 153 143 132 118 99 54 263 210 189 193
79 61 31 9 357 359 351 333 289 253 237 252 350 270 76 44 15 2 353 351 348 342 341 343 345 349 348 354 10 36 72 72 83 118 124 122 125 119 118 116 315 262 223 211
10 45 27 18 11 345 349 346 338 309 303 312 298 290 92 29 15 4 359 354 347 346 348 350 349 349 352 349 2 35 65 59 54 77 96 108 114 106 105 107 114 255 246 229
14 49 37 31 31 15 347 357 341 299 292 283 268 124 123 6 1 359 358 353 349 347 353 1 2 3 5 8 8 34 79 71 55 63 81 90 94 90 91 95 233 246 240 229
3 49 44 30 23 28 3 329 318 327 320 306 314 28 1 348 343 343 346 340 339 339 353 10 10 11 13 17 22 39 76 88 70 63 70 80 81 80 79 28 268 253 224 200
359 45 72 49 29 10 4 1 335 318 313 306 313 22 358 324 324 326 324 328 335 340 0 15 10 4 359 1 5 13 44 76 81 81 81 83 84 82 50 285 267 256 220 198
10 340 85 76 58 22 17 10 346 344 346 306 296 353 350 334 342 341 342 350 1 11 21 15 5 357 352 348 350 1 28 56 73 77 78 83 83 85 261 256 246 230 209 214
38 328 212 147 73 17 15 16 4 336 329 347 345 344 348 358 7 7 9 16 19 25 28 20 14 9 6 10 18 34 42 45 48 61 78 91 117 184 233 220 157 129 123 142
300 52 51 69 57 9 9 15 19 25 15 3 8 357 357 360 5 8 15 19 20 23 24 25 22 22 22 27 35 44 44 35 32 44 69 113 146 180 159 93 99 93 93 93
267 98 102 113 110 19 33 25 28 36 24 22 20 19 355 351 358 8 12 12 17 23 25 26 28 26 25 29 36 43 44 38 39 53 69 82 107 117 106 94 73 57 56 62
255 141 147 143 178 14 50 31 25 25 18 30 43 27 336 338 358 13 15 12 19 26 29 31 32 32 29 28 35 44 48 48 55 64 73 81 90 91 86 75 61 50 42 36
197 187 194 130 151 192 75 31 19 26 20 4 8 332 325 343 6 15 15 17 27 33 37 37 36 36 33 33 34 41 43 50 55 58 58 59 61 60 58 60 57 50 46 43
227 207 216 174 194 134 89 116 273 260 21 345 322 324 335 348 20 48 30 19 21 22 28 31 31 36 37 40 41 41 41 46 50 51 51 51 54 56 56 54 51 47 48 51
340 250 252 235 130 124 157 186 217 223 110 16 337 349 356 344 92 57 24 8 6 5 11 20 22 28 38 39 37 49 51 49 49 48 47 48 52 52 49 47 45 42 45 52
121 215 255 247 243 150 128 133 158 247 154 117 355 4 3 2 33 26 0 353 357 357 3 6 10 24 37 38 36 51 57 56 51 47 48 47 47 50 50 48 45 47 49 50
207 203 230 242 259 110 119 137 187 229 95 101 13 2 358 6 356 338 341 356 2 359 353 350 356 19 20 12 25 46 49 50 46 40 40 40 40 42 37 35 33 28 31 34
247 222 210 221 230 151 145 170 209 47 84 91 9 356 347 344 343 347 353 1 5 5 359 350 346 359 7 2 4 36 43 47 53 52 47 44 39 32 27 29 31 29 25 34
231 247 266 248 16 94 178 205 208 224 221 44 358 348 337 341 351 352 354 359 0 1 359 351 340 334 341 358 351 2 24 23 37 47 52 42 44 43 29 27 37 40 38 40
201 203 237 247 230 205 202 214 212 208 237 321 328 325 324 339 348 352 354 356 356 355 353 346 338 330 332 341 337 337 351 349 3 28 32 33 27 43 58 49 46 48 48 45
213 188 221 239 208 193 208 211 204 193 208 242 279 295 320 334 346 350 351 355 352 348 345 341 336 329 324 328 335 347 345 325 335 2 12 13 22 23 52 74 56 54 61 32
199 197 202 218 192 193 192 192 190 190 198 205 221 277 329 337 345 348 351 351 346 344 341 341 344 341 339 339 344 356 343 309 296 307 350 6 25 32 32 76 127 122 60 21